Theta_e
322 321 320 319 318 318 318 320 321 320 319 319 320 320 320 320 321 322 322 322 316 309 309 312 313 313 313 314 314 314 314 315 315 315 315 315 314 314 315 314 312 309 308 309 310 309 309 309 308 309 309 308 307 307 307 306 306 306 305 305 304 304 304 304 303 303 304 304 304 304 304 304 304 303 303 302 302 300 299 301 302 302 302 303 302
324 323 321 320 319 318 318 318 320 321 321 320 320 320 320 320 320 322 322 322 318 311 308 311 313 314 313 313 314 314 314 315 316 316 315 315 313 312 312 312 311 309 306 306 307 309 310 309 308 309 308 307 306 306 307 306 306 305 305 304 304 304 304 303 303 303 303 303 303 303 303 303 303 302 302 301 298 297 299 300 300 301 302 302 302
324 325 323 321 320 319 319 319 319 320 321 321 321 320 320 320 320 322 322 321 319 313 308 311 313 314 314 313 314 315 315 316 316 316 316 315 313 311 310 310 310 308 305 304 305 308 309 308 309 309 308 307 307 306 306 306 305 305 305 304 304 304 303 303 303 303 303 302 302 303 303 303 302 302 301 299 295 296 298 298 299 301 302 301 301
323 325 325 323 322 321 320 321 320 321 321 321 321 321 320 320 321 321 322 321 319 314 309 310 314 314 314 314 315 316 316 316 317 317 316 315 313 311 310 309 309 306 303 303 303 306 308 308 308 308 308 308 307 306 306 306 305 305 305 304 304 303 303 302 302 302 302 302 302 302 302 302 302 301 299 296 295 295 296 297 298 300 301 301 301
323 324 325 325 324 323 322 322 322 322 322 322 322 322 321 321 321 321 322 321 319 316 311 310 314 315 315 316 316 316 316 317 317 317 316 315 314 312 311 309 308 304 302 302 302 306 309 309 307 307 307 307 307 306 306 306 305 305 304 304 304 303 303 302 302 302 302 301 302 302 301 301 301 300 298 296 294 294 295 295 297 300 301 300 300
324 323 325 326 326 325 324 324 324 324 323 323 322 322 322 321 321 321 322 322 320 317 313 310 312 315 317 317 317 317 317 317 317 317 316 315 314 312 311 310 307 304 303 300 301 304 307 309 308 307 307 307 307 306 306 305 305 304 304 304 303 303 302 302 301 301 301 301 300 301 301 300 300 300 299 298 296 294 294 295 297 299 300 300 300
325 324 324 326 327 326 326 325 325 325 324 324 323 322 322 321 321 321 321 322 321 319 315 311 311 314 316 317 318 317 317 317 317 317 316 315 314 313 311 309 307 305 303 299 299 301 303 306 307 306 306 306 306 306 305 305 304 304 304 303 303 303 302 302 301 300 300 300 299 300 300 300 300 300 300 299 297 295 293 296 299 299 299 299 299
327 326 324 325 326 327 327 327 326 326 325 324 323 323 322 322 321 321 321 321 322 320 317 313 311 312 315 317 318 318 317 317 316 316 316 315 314 313 311 310 307 306 304 299 297 299 300 302 303 303 305 306 305 305 305 305 304 303 303 303 302 302 301 301 300 298 297 297 298 299 299 299 298 298 299 298 296 294 293 296 299 299 299 299 299
328 327 326 326 327 328 328 327 327 327 326 325 324 323 323 322 322 322 321 321 321 321 319 316 312 311 313 316 317 318 318 317 316 315 315 315 314 313 312 310 309 307 303 298 297 297 297 299 299 300 303 305 305 305 305 304 304 303 303 302 302 301 301 299 296 293 293 294 296 296 296 298 296 297 299 297 295 292 293 297 297 298 299 298 298
329 328 326 327 327 327 327 327 328 328 327 326 325 324 323 323 323 323 322 322 321 321 320 318 315 312 313 315 316 317 317 316 316 315 315 315 314 314 312 311 310 306 302 297 296 297 296 297 297 298 299 301 303 304 304 304 304 303 303 302 301 301 300 297 292 290 291 291 293 293 293 296 296 298 297 294 295 292 293 297 296 297 298 296 297
328 328 326 326 325 325 325 325 326 327 327 327 326 325 324 324 324 323 322 322 322 321 320 319 317 315 313 314 315 315 316 316 316 315 315 314 314 314 312 312 310 305 300 296 296 296 296 296 296 296 297 298 300 302 302 302 302 303 303 302 301 300 298 294 290 290 290 290 290 290 291 292 294 295 293 294 295 291 293 297 295 296 297 296 297
328 327 327 327 326 324 324 324 324 324 326 326 326 326 326 325 325 323 322 322 322 321 320 319 318 316 314 314 315 315 315 316 315 314 314 314 314 313 312 313 310 303 298 295 295 295 295 295 295 295 294 295 297 299 300 300 300 301 302 302 301 300 297 292 290 290 290 290 290 289 290 290 290 291 292 295 295 290 293 297 294 295 297 296 297
330 329 328 326 326 326 325 324 324 324 325 325 325 326 326 325 324 323 322 321 322 322 321 318 317 316 315 315 315 315 315 315 315 314 314 314 313 313 313 313 308 300 296 295 295 295 295 295 295 294 293 294 295 296 298 297 297 298 300 301 301 300 296 291 290 290 290 290 290 289 289 289 289 289 291 293 293 289 292 295 293 295 296 296 296
332 331 329 326 325 327 328 325 325 325 325 326 325 324 325 324 324 324 323 321 321 321 321 319 317 316 315 315 315 314 314 315 314 314 314 313 313 312 313 312 306 297 295 295 295 295 295 295 294 294 293 293 293 294 295 294 294 294 295 298 300 299 296 292 290 290 290 289 290 289 289 288 288 290 290 291 291 290 292 294 292 294 296 296 296
330 331 331 330 325 325 328 328 327 327 326 327 326 325 324 324 324 325 324 323 320 319 320 320 319 318 315 314 315 315 314 314 314 314 314 313 313 313 312 311 303 295 294 294 294 294 294 294 294 294 293 293 292 292 292 292 292 292 291 293 295 295 294 292 290 290 290 290 290 289 289 288 288 289 289 291 291 290 293 294 291 293 295 295 296
330 328 328 329 326 325 329 330 328 328 328 327 327 326 324 323 323 323 324 324 322 321 321 319 320 320 317 314 312 311 312 313 314 314 314 313 313 313 311 308 301 295 294 294 294 294 294 294 294 294 293 292 292 291 291 291 291 291 291 290 291 291 291 290 290 290 289 289 290 289 289 289 288 289 288 290 290 289 293 293 291 294 295 295 295
332 330 329 329 327 325 328 330 329 329 329 329 329 328 325 324 323 322 324 324 323 323 321 319 319 320 319 317 313 310 313 313 312 313 313 313 313 312 311 307 300 295 294 293 293 293 294 294 294 293 293 293 292 291 291 291 291 291 291 290 290 290 290 290 289 290 289 289 289 289 289 289 289 288 288 289 289 289 291 291 292 294 294 294 294
328 328 329 329 326 323 324 326 328 329 330 330 329 327 327 326 324 323 323 324 323 322 321 320 319 318 319 320 318 316 317 315 312 311 311 312 312 311 311 306 299 295 294 293 293 293 293 293 293 293 293 293 292 292 291 291 291 291 291 290 290 290 289 289 289 289 289 289 289 289 289 289 288 288 288 289 288 289 290 290 291 292 292 293 293
328 326 325 324 324 326 327 327 328 329 329 329 328 328 327 325 324 324 323 323 322 322 322 321 318 318 319 320 321 320 319 317 314 311 310 311 311 310 309 306 300 295 294 294 293 293 293 293 293 293 293 293 292 292 291 291 291 291 290 290 290 290 289 289 289 289 289 289 289 289 288 288 289 288 289 289 288 288 290 290 290 289 291 293 293
327 326 327 327 326 325 326 326 325 325 325 325 324 324 323 322 323 324 322 321 322 322 323 321 320 321 321 320 321 320 319 317 315 312 309 309 309 308 308 306 301 297 295 294 293 293 293 292 293 293 293 293 293 292 291 291 291 291 290 290 290 289 289 289 289 289 289 289 288 288 288 289 289 289 289 289 288 288 289 289 289 288 290 293 293
322 322 325 328 328 327 326 326 326 326 326 326 324 324 322 320 321 323 321 321 322 322 322 322 322 322 321 321 321 320 318 316 314 312 309 307 306 306 307 306 304 301 298 295 294 294 294 293 292 292 292 292 293 292 292 291 291 291 291 290 290 289 289 289 289 289 288 288 288 288 288 289 289 289 289 289 289 288 288 288 288 288 289 291 293
322 321 322 324 325 327 327 328 328 327 326 325 325 324 322 319 321 323 323 322 322 321 320 320 321 321 321 322 322 320 318 315 315 314 312 309 307 306 307 308 309 308 303 298 296 295 294 294 293 293 292 292 292 292 292 291 291 291 291 290 290 289 289 289 289 289 288 288 288 288 289 289 289 289 289 289 289 289 288 288 288 288 288 290 292
320 321 322 322 322 323 323 325 325 323 322 322 321 321 320 320 322 323 322 322 322 321 319 319 319 318 318 320 321 321 320 317 317 318 317 314 312 310 309 310 311 310 305 301 299 296 294 294 294 294 293 292 292 292 292 292 291 291 291 290 290 290 289 289 289 288 288 288 288 288 289 289 289 289 289 289 289 289 288 288 289 288 288 290 291
318 318 319 319 320 320 320 321 321 322 322 321 321 322 322 323 322 320 320 320 321 321 319 319 320 319 317 318 319 320 321 319 317 319 319 318 316 313 310 309 310 309 307 304 301 297 296 295 294 294 294 293 293 292 292 292 291 292 291 291 290 290 289 289 288 288 288 288 288 288 289 289 289 289 289 289 289 289 289 289 289 288 289 289 290
315 315 315 316 316 317 317 317 318 319 321 321 321 321 322 323 322 321 321 320 320 320 320 319 320 321 319 317 318 318 320 319 316 318 319 317 314 311 308 307 306 306 305 304 302 299 297 296 295 294 294 294 293 292 292 292 292 292 292 291 291 290 289 289 289 288 288 288 288 288 289 289 289 289 289 289 289 289 288 289 289 288 289 289 289
314 314 314 314 314 314 314 314 315 315 318 320 322 322 322 322 322 321 322 322 321 320 320 320 319 319 318 316 316 317 318 317 316 317 319 317 314 311 308 306 304 304 303 302 301 300 300 299 297 295 294 294 294 293 293 293 292 293 293 292 291 290 290 289 288 288 288 288 288 288 289 289 289 289 289 289 289 289 289 289 289 288 289 289 289
314 314 314 313 313 313 313 313 313 313 314 316 318 319 320 320 320 320 320 321 320 320 320 320 319 319 318 316 316 317 317 317 315 317 319 317 315 312 309 306 304 303 302 301 301 302 304 302 298 296 296 295 296 295 294 293 293 293 293 292 291 291 290 289 288 288 288 287 288 288 289 289 289 289 289 289 289 289 289 288 289 288 288 289 289
314 314 314 313 313 313 313 312 312 312 312 313 313 314 315 316 317 318 318 318 318 318 319 319 320 320 319 317 317 317 318 317 315 315 318 317 314 311 308 307 305 303 301 300 301 304 305 303 299 298 298 297 297 296 294 294 293 293 293 292 292 291 290 289 288 288 288 287 288 288 289 289 289 289 289 289 289 289 288 288 288 288 288 288 289
314 314 314 313 313 313 313 312 312 312 312 312 311 311 311 311 312 313 314 315 316 317 317 318 319 319 319 319 318 318 318 316 314 315 316 316 313 311 309 307 305 303 302 301 302 304 306 306 303 300 299 299 298 297 295 294 294 293 293 293 292 291 291 289 288 288 288 288 288 289 289 289 290 289 289 289 289 289 288 288 288 288 288 288 288
314 314 314 314 314 313 313 312 312 312 312 311 311 310 310 309 310 310 310 311 313 315 316 317 318 318 319 318 318 319 318 317 316 316 316 315 314 312 310 308 305 304 303 301 303 306 306 306 306 302 300 300 299 297 296 294 294 293 293 293 292 292 291 289 289 288 288 289 289 289 289 290 290 289 289 289 289 289 288 288 288 288 288 288 288
315 314 314 314 314 314 313 313 312 312 312 311 310 310 309 309 309 309 309 309 310 312 313 314 316 317 317 317 318 318 318 317 316 316 316 316 316 314 311 309 306 305 304 301 301 305 306 305 306 302 299 300 300 298 297 294 293 293 293 293 292 291 290 289 289 289 290 291 291 290 290 290 289 289 289 289 289 288 288 288 288 288 288 288 289
315 314 314 314 314 314 313 313 313 312 312 312 311 310 309 309 309 308 308 308 309 310 311 312 313 314 314 315 315 316 316 316 316 316 317 316 316 314 311 310 308 306 305 301 299 303 305 305 305 302 299 300 299 298 297 295 293 293 292 292 292 291 289 289 289 290 291 292 291 290 290 289 289 288 288 289 289 288 288 288 288 288 288 288 288
314 314 314 314 313 313 313 313 313 312 312 312 311 310 310 310 309 308 308 308 309 310 311 313 313 313 313 314 315 315 315 316 317 317 317 317 316 315 311 309 308 307 305 302 302 304 304 303 302 302 301 300 299 298 297 295 294 292 292 292 291 290 289 288 289 290 292 292 291 290 290 289 289 288 288 288 288 288 288 288 288 288 288 288 288
314 314 313 314 313 313 313 313 313 312 312 312 311 311 310 310 309 308 308 308 309 310 311 312 313 313 314 315 315 316 316 316 317 316 317 317 316 315 313 310 310 309 307 303 302 302 302 301 301 302 301 300 299 298 296 295 294 293 292 292 291 290 289 288 289 291 292 291 290 290 289 289 289 288 288 288 288 288 288 288 288 288 288 288 288
314 314 314 313 313 313 313 313 313 312 312 312 311 311 311 310 309 308 308 309 309 310 311 312 313 314 315 315 315 316 316 316 316 316 316 316 315 315 315 313 312 312 311 306 303 301 300 300 300 300 300 298 297 297 296 295 294 293 293 292 291 290 289 289 290 292 292 290 290 290 289 289 289 288 288 288 288 288 288 288 288 288 288 288 289
315 314 314 314 313 313 313 313 313 312 312 312 311 311 311 310 309 308 309 310 311 311 312 313 315 315 315 315 315 316 316 315 315 315 314 314 314 314 315 314 313 312 311 308 304 301 300 299 299 299 298 297 296 296 296 294 293 293 292 291 291 290 289 291 292 293 292 290 290 290 289 289 289 288 288 288 288 288 288 288 287 288 288 289 289
315 314 314 314 314 313 313 313 312 312 311 311 311 311 311 310 310 309 309 309 310 312 313 314 315 315 315 315 316 315 315 314 314 314 314 314 314 313 313 313 312 312 309 306 303 299 297 297 297 297 296 295 295 295 295 294 293 293 292 290 290 289 290 292 294 293 292 291 290 290 290 289 289 288 288 288 288 288 288 287 287 288 289 289 289
314 314 314 314 313 313 313 313 313 312 311 311 311 310 311 310 310 310 309 308 309 310 311 313 314 314 314 314 314 314 314 314 314 314 315 315 314 313 313 312 312 311 309 306 302 298 296 295 295 295 294 295 296 296 296 295 293 293 292 290 288 289 291 293 295 295 293 292 291 291 290 289 288 288 287 287 287 287 287 287 287 288 289 289 288
314 314 314 314 313 313 313 313 313 313 312 311 311 311 311 310 310 310 310 309 308 308 309 310 311 312 313 313 313 314 314 314 314 314 314 314 314 313 313 312 311 309 307 305 302 299 296 296 296 295 295 296 296 296 296 295 293 292 292 291 290 291 293 296 297 296 294 293 292 291 289 289 288 287 287 287 287 287 287 287 288 289 289 288 287
313 314 313 313 313 313 313 313 313 313 312 312 312 311 311 311 310 310 310 310 309 308 308 308 309 310 310 311 311 312 313 313 314 314 314 314 314 313 313 312 310 309 307 305 302 299 297 296 297 297 297 296 296 296 295 294 292 291 291 293 295 296 297 298 298 296 295 293 292 290 289 288 288 287 287 287 287 288 288 288 289 288 288 287 287
313 313 313 313 313 313 313 313 313 313 313 312 312 312 311 311 310 310 310 309 309 309 308 307 307 308 309 310 311 311 312 312 313 313 313 313 312 312 311 311 310 308 307 305 302 300 298 297 296 296 296 295 295 296 295 293 293 292 292 293 296 297 298 298 297 296 295 292 291 289 289 288 288 287 287 288 288 288 288 288 288 288 287 286 286
312 312 312 312 312 312 312 313 312 312 312 312 312 312 311 311 310 309 309 309 309 309 308 307 307 307 308 309 310 311 311 312 312 312 313 312 311 310 310 309 309 308 308 306 303 300 298 297 296 296 295 295 296 296 295 294 293 292 292 295 297 297 297 297 296 295 293 291 290 289 289 288 287 287 288 288 289 289 288 288 287 287 286 286 286
311 311 312 311 311 311 311 311 312 312 312 312 312 311 311 310 310 309 309 309 308 308 308 308 307 307 306 306 307 308 309 310 311 311 311 311 311 311 310 309 308 307 306 304 303 301 299 297 297 296 295 296 296 296 295 294 292 291 294 297 298 298 298 297 296 295 293 292 290 289 289 288 288 288 288 289 289 288 288 287 287 286 286 286 286
311 311 311 311 311 311 311 311 311 311 311 311 311 310 310 310 309 309 309 308 308 308 307 307 307 307 306 305 305 305 305 306 307 308 308 309 310 310 310 308 306 306 305 304 302 301 299 298 297 296 295 295 295 294 294 293 291 293 296 298 298 299 299 298 297 296 294 292 290 289 289 289 288 288 289 289 289 288 287 287 286 286 286 286 286
310 311 311 311 311 311 311 311 311 311 311 310 310 310 310 309 309 308 308 308 307 307 307 307 306 306 305 304 304 303 303 304 304 305 306 307 308 309 309 307 306 305 305 304 302 300 299 298 297 296 296 295 293 294 294 292 292 295 297 298 298 299 299 299 298 296 293 291 290 289 290 290 289 289 289 289 288 287 287 286 286 286 286 286 286
309 309 309 310 310 310 310 310 311 311 311 311 310 310 310 309 309 308 308 308 307 307 307 306 306 305 304 303 303 302 302 302 303 304 304 305 306 307 307 306 306 305 305 304 303 300 298 296 296 297 297 296 294 294 294 292 293 296 298 298 298 299 299 298 296 294 292 291 290 289 289 289 289 289 289 288 288 287 287 286 286 286 286 286 286
308 308 308 309 309 309 309 309 310 310 310 310 310 310 310 309 308 308 307 307 307 307 307 306 305 305 304 302 302 301 301 301 301 302 302 303 304 304 304 305 305 304 304 304 302 300 298 296 296 295 295 295 294 294 293 293 295 297 298 298 298 299 299 297 294 292 291 291 290 289 289 289 289 289 288 288 288 287 286 286 286 286 286 286 285
308 308 308 308 308 308 308 308 309 309 309 310 310 310 309 309 308 307 307 306 306 306 306 306 305 305 304 302 301 301 301 300 300 301 301 302 302 303 303 303 303 303 303 303 302 299 296 295 295 294 293 293 293 292 292 293 295 297 297 298 298 297 297 295 293 292 291 291 290 290 289 289 289 289 289 288 287 286 286 286 286 286 286 285 285
307 307 307 307 307 308 308 308 308 308 308 309 309 309 309 308 307 307 306 306 306 306 306 305 305 304 303 302 301 300 300 300 300 300 301 301 301 301 302 302 302 302 301 301 300 297 295 294 295 295 294 293 292 292 292 293 295 296 297 298 298 296 295 293 293 292 291 291 290 290 290 289 289 289 289 288 287 286 286 286 286 286 286 285 285
305 306 306 307 307 308 308 308 308 308 308 308 309 309 308 308 306 306 305 304 304 305 305 305 305 303 302 302 301 300 300 300 300 300 300 300 299 300 300 300 300 300 300 299 298 296 295 294 294 294 293 292 291 292 292 293 295 297 297 298 298 296 294 294 293 292 291 290 290 290 289 289 289 289 289 287 286 286 286 286 286 286 285 285 284
304 305 305 306 306 307 307 308 308 308 308 309 308 308 308 307 305 304 303 303 303 303 303 303 303 302 301 301 300 300 300 299 299 299 299 299 298 298 298 298 298 298 298 297 297 296 296 295 294 293 292 291 292 292 292 293 295 297 297 297 297 297 295 294 293 291 291 290 290 290 289 289 289 289 288 286 285 286 286 286 286 285 285 284 284
Wind_Speed
10 10 10 10 10 11 11 11 11 12 12 11 11 10 9 8 7 6 6 6 6 6 8 10 11 12 13 15 16 17 18 18 17 16 15 13 11 10 9 6 2 3 6 8 9 10 11 11 12 12 11 12 12 13 13 14 14 14 14 14 14 14 14 15 15 15 15 15 15 16 16 17 17 17 17 17 17 19 19 18 18 19 19 19 19
12 12 12 11 11 11 12 12 12 12 12 12 11 11 10 9 8 8 8 8 8 7 9 11 13 14 15 16 18 18 19 19 18 17 15 14 11 10 8 7 4 1 3 5 7 10 10 10 11 11 11 11 11 12 13 13 13 13 13 13 13 14 13 14 13 14 14 14 15 15 15 16 16 16 16 16 17 18 17 16 17 18 18 19 18
15 14 14 13 13 12 12 12 12 12 13 13 13 13 12 11 10 9 9 9 9 9 10 13 15 15 17 18 19 20 20 20 19 17 16 15 12 9 8 7 6 3 1 1 3 7 8 10 11 9 9 11 10 11 12 12 12 12 13 13 13 13 13 13 13 13 13 13 14 14 15 15 14 14 14 15 17 17 16 16 17 18 18 18 18
18 16 15 15 14 14 13 13 13 13 13 13 14 14 14 13 12 11 11 11 10 10 11 15 17 17 19 20 20 21 21 20 20 18 17 16 13 11 9 8 7 5 2 2 1 3 6 9 12 9 8 10 10 11 12 11 12 12 12 12 12 12 12 12 12 12 12 12 13 13 13 13 13 13 14 15 16 16 15 15 17 18 17 17 17
20 18 18 17 16 16 15 14 14 14 14 14 15 16 16 16 15 14 13 12 12 12 12 16 19 20 21 21 21 22 22 22 21 20 19 17 15 13 11 9 8 7 5 3 2 4 7 8 11 12 11 10 10 10 11 11 11 11 11 11 11 10 10 11 11 11 10 11 12 12 11 12 12 12 13 13 14 15 15 15 16 16 16 17 16
22 21 20 19 19 19 17 16 16 15 15 16 16 17 17 17 17 16 15 14 13 13 13 16 20 23 23 23 23 23 23 22 22 21 20 19 17 14 12 11 10 8 7 5 4 5 8 9 10 10 11 11 11 10 10 11 11 10 10 10 10 9 10 10 10 10 9 9 10 10 10 11 11 11 11 12 13 14 14 15 16 15 15 16 16
23 23 22 22 21 21 20 19 18 17 17 17 18 18 18 18 18 17 17 16 15 15 15 16 20 24 25 25 24 25 24 24 23 22 21 20 18 16 14 13 12 11 9 7 8 8 8 9 10 9 9 10 12 12 10 10 10 10 10 9 9 9 9 9 9 9 8 8 8 9 9 9 9 10 10 11 12 12 13 14 14 14 15 15 15
25 25 25 24 24 23 23 22 21 19 18 18 19 19 19 19 19 19 18 18 17 17 16 17 20 23 25 26 26 26 26 26 25 23 22 21 20 18 16 16 15 13 12 10 10 11 10 10 9 9 9 10 11 11 11 10 10 10 10 9 8 8 8 8 7 7 7 7 7 7 7 7 8 8 9 9 10 11 12 13 13 14 14 14 14
26 26 25 25 25 24 23 23 22 21 20 20 20 20 20 21 21 20 20 19 19 18 18 18 20 23 26 27 27 27 27 27 25 24 24 23 22 20 19 18 17 16 14 13 12 12 12 12 11 10 10 10 10 10 10 10 10 9 10 9 8 8 7 7 6 6 5 5 5 6 6 6 6 7 7 8 9 11 12 11 11 13 13 13 14
27 27 26 25 24 24 24 23 22 21 21 22 22 22 22 22 22 22 21 21 21 20 19 19 21 23 26 27 27 28 28 28 27 26 26 25 25 23 22 21 20 19 17 15 14 14 14 13 13 12 11 10 10 10 10 11 11 9 9 8 8 7 7 7 6 5 4 3 4 4 4 4 5 5 6 7 8 11 11 10 11 12 12 12 13
26 27 27 25 24 25 26 24 23 23 23 23 24 24 23 24 25 24 24 23 22 21 20 21 22 23 26 28 29 29 29 29 29 29 29 28 27 26 25 24 23 21 19 18 17 16 16 15 15 14 13 12 11 11 10 10 11 11 9 8 7 7 6 5 5 4 3 2 2 2 2 2 3 3 4 6 7 10 10 8 10 11 11 12 13
25 25 26 27 26 25 26 26 26 26 25 25 26 25 25 27 28 27 27 27 26 24 24 23 24 25 28 29 30 30 30 30 30 31 31 31 30 29 28 27 25 23 21 20 19 18 17 17 17 16 15 14 13 12 11 11 11 11 10 8 7 7 6 4 4 3 1 1 1 2 2 2 2 2 3 4 6 8 8 7 9 10 10 11 12
31 27 25 27 29 29 27 27 27 26 27 27 25 26 28 30 30 29 30 30 29 28 27 26 26 27 29 30 31 31 31 32 33 33 33 34 33 32 31 29 27 25 23 22 21 21 20 19 19 18 17 16 15 15 14 13 12 11 10 11 9 8 6 3 2 2 1 1 1 1 2 3 3 3 3 3 5 7 7 6 8 9 10 11 12
36 33 26 24 29 33 32 31 30 27 28 30 29 28 30 33 32 31 32 33 32 31 30 29 28 29 30 31 32 33 34 35 35 35 36 37 36 36 35 32 30 27 26 25 24 23 22 22 21 20 19 18 18 17 17 16 14 12 10 11 11 9 6 2 2 3 3 3 3 2 2 3 3 4 4 4 5 7 6 6 7 8 9 10 11
36 36 31 27 30 34 36 36 36 32 30 31 33 32 31 34 35 35 35 35 35 34 32 31 30 30 31 31 32 33 34 37 40 40 39 40 39 38 37 35 32 30 29 28 27 25 25 24 24 23 22 21 20 19 19 18 16 14 12 11 12 11 9 7 6 6 6 6 5 3 2 2 3 5 5 4 5 6 5 6 8 8 9 10 10
35 34 35 34 35 35 38 41 41 40 36 34 36 37 33 32 32 35 40 41 39 37 35 35 34 32 30 30 30 29 33 39 42 42 43 42 42 41 39 37 35 33 32 31 29 28 27 27 26 25 25 24 23 22 21 19 18 17 15 14 14 13 12 11 10 9 9 8 6 5 3 3 3 5 6 5 4 4 4 6 7 7 7 8 9
35 35 37 37 36 36 39 45 46 43 41 40 41 40 36 33 30 33 42 46 43 40 38 38 37 35 32 31 28 27 34 41 39 40 44 45 45 44 42 40 38 36 35 33 32 31 30 29 28 27 27 26 25 24 23 21 20 19 18 17 16 15 14 14 13 12 11 10 9 7 5 4 4 5 6 6 5 4 4 6 6 5 5 7 8
34 35 36 37 37 36 35 40 45 45 44 45 45 42 40 37 34 36 43 48 47 44 41 40 39 38 37 36 35 34 37 38 35 36 41 44 46 46 45 42 40 39 38 36 35 33 32 31 30 30 29 28 27 26 25 23 22 22 21 19 18 17 16 16 15 14 12 11 11 9 7 5 4 5 7 6 5 5 6 6 5 5 6 8 9
36 36 36 37 37 39 37 35 40 43 43 44 45 43 41 40 41 42 45 50 51 47 44 44 43 41 39 40 41 42 40 38 38 35 33 38 43 45 46 45 43 43 42 40 38 36 35 33 33 32 31 30 29 28 27 25 24 24 22 21 20 19 18 18 17 15 14 12 12 11 9 7 6 6 8 7 6 5 6 6 6 6 6 8 8
35 37 38 38 37 38 38 36 38 40 40 42 44 43 41 43 46 45 46 51 53 50 47 49 48 42 40 41 43 44 42 42 43 39 33 33 35 38 42 44 44 46 45 43 42 40 37 35 34 34 33 32 31 29 28 27 26 25 24 23 22 21 20 19 19 17 16 14 13 11 10 9 8 8 9 8 6 6 6 7 7 7 5 5 7
31 32 35 38 39 38 38 38 40 43 44 46 47 45 41 42 45 45 46 49 51 51 51 53 53 47 42 43 44 43 42 44 44 43 40 36 34 35 37 38 41 47 48 48 46 43 41 38 36 35 34 34 32 31 30 29 28 27 26 25 24 23 23 22 21 19 17 16 14 12 11 11 9 9 10 9 6 6 8 8 7 7 6 5 6
30 31 32 35 37 38 38 38 41 44 45 46 46 45 44 48 51 50 48 48 48 50 53 56 56 52 48 47 47 43 42 43 43 45 47 44 43 43 40 38 41 45 46 48 48 46 44 42 40 38 37 36 34 33 32 31 29 29 28 27 26 25 25 24 22 21 19 17 15 14 13 12 11 10 11 10 7 7 8 8 7 7 7 6 6
30 31 33 34 36 38 40 42 45 46 45 45 45 46 47 50 52 51 49 49 50 50 51 55 58 56 54 53 52 47 42 41 42 44 47 47 47 51 49 45 45 44 41 41 46 48 47 45 44 42 40 38 37 35 34 32 32 31 30 29 28 27 26 25 24 22 20 19 16 15 15 13 12 11 12 11 8 8 8 9 8 8 8 7 6
29 30 32 33 35 37 39 42 45 46 46 47 48 49 50 47 46 47 46 47 53 54 53 53 56 60 61 57 54 52 46 44 45 46 47 46 47 53 54 49 46 44 40 38 41 46 48 48 47 45 43 41 39 37 36 35 34 33 32 31 30 29 28 27 25 23 22 20 18 17 16 15 13 12 13 12 9 8 9 9 8 8 9 9 9
28 29 29 29 30 32 35 37 39 42 45 46 45 46 49 48 48 48 46 46 52 57 58 54 54 60 64 60 56 55 51 47 46 48 48 48 48 52 54 50 45 42 39 38 40 43 45 48 49 48 46 44 42 40 39 37 36 35 34 33 32 31 29 28 27 24 22 21 19 18 18 16 14 13 13 12 11 9 9 9 9 9 10 11 12
26 27 26 26 28 28 30 32 34 36 40 44 44 44 45 46 48 49 50 50 51 53 56 55 54 58 61 60 58 58 56 50 49 50 50 49 50 52 54 51 46 42 41 39 39 41 42 43 47 49 48 46 44 43 41 40 38 36 36 35 34 32 31 30 28 25 23 21 20 19 19 17 15 15 14 13 12 11 10 10 10 10 12 13 15
24 25 25 25 26 27 28 30 31 33 36 40 43 46 47 49 50 51 52 52 52 52 53 54 56 56 56 58 60 60 58 54 54 53 51 51 53 54 55 53 48 45 44 41 40 42 41 39 43 47 48 48 47 46 44 42 40 38 37 37 35 34 32 31 29 26 24 22 21 21 20 18 17 16 16 15 14 12 11 11 11 11 13 14 16
24 24 24 24 25 26 27 29 30 31 33 36 39 43 47 50 53 54 55 54 54 54 54 55 56 55 54 55 58 59 60 58 57 54 52 53 54 55 56 56 51 45 42 43 45 46 43 40 41 43 45 47 47 47 46 44 42 40 40 39 37 35 33 31 29 27 26 23 22 22 21 20 18 18 17 16 15 14 13 13 12 13 14 16 18
24 24 24 25 25 26 27 28 29 30 32 34 36 39 43 48 53 55 57 57 56 56 55 55 56 55 54 54 56 59 61 60 58 55 54 54 55 56 56 58 56 49 44 44 49 51 46 44 43 42 43 45 46 48 49 47 44 43 42 41 38 36 34 32 30 29 27 25 24 24 22 21 20 19 19 18 16 15 14 14 14 15 16 18 19
25 25 26 26 26 27 27 28 28 29 31 32 34 36 39 44 49 52 55 56 56 56 56 55 54 54 55 56 57 60 61 59 56 55 55 56 57 58 57 58 58 56 52 48 50 53 49 45 44 41 42 44 45 48 50 49 46 45 44 42 39 37 34 32 31 30 29 27 26 25 24 23 22 21 20 19 18 17 16 16 16 16 18 19 20
26 26 27 27 28 28 29 29 29 29 30 31 32 34 35 37 40 45 48 50 52 53 54 54 53 53 54 55 56 58 57 55 54 56 58 58 59 60 58 57 58 59 57 51 50 54 52 47 44 41 40 41 43 46 49 50 48 47 45 43 40 38 36 34 33 33 32 30 28 26 25 24 23 22 22 21 20 18 18 18 17 18 19 20 22
27 27 27 28 29 29 29 29 29 30 31 32 33 34 34 33 34 39 42 43 45 48 49 50 51 52 54 54 55 55 54 53 55 58 60 60 60 61 59 57 58 60 59 55 54 58 57 52 47 43 39 38 40 45 49 50 50 49 47 43 40 39 37 35 35 35 33 31 28 27 26 26 25 24 23 23 21 20 19 19 19 19 20 21 23
26 27 28 29 29 30 30 30 29 30 30 31 32 33 35 34 32 35 39 41 43 44 44 46 47 49 51 52 53 52 52 54 57 60 60 60 60 61 59 57 57 59 60 59 59 62 60 55 52 49 45 41 42 45 48 49 51 51 48 44 42 40 38 36 36 36 34 31 29 28 28 27 26 25 25 24 23 21 21 20 20 20 20 22 24
25 26 28 29 30 31 31 31 31 31 31 31 31 32 34 34 33 33 35 39 42 43 44 46 47 48 50 52 54 53 52 56 59 60 61 61 61 60 59 58 58 59 60 60 60 61 60 57 56 54 51 46 44 45 47 49 50 50 48 45 43 42 39 37 37 36 33 31 29 29 28 28 27 26 26 25 24 23 22 22 22 21 21 23 25
24 25 27 28 30 31 32 32 32 32 32 32 31 31 32 33 34 33 34 37 40 42 44 45 46 48 51 54 55 55 56 59 61 60 60 61 61 60 60 60 59 59 60 61 61 61 59 57 57 55 51 48 46 44 45 47 47 47 47 46 45 43 40 38 38 36 33 31 30 30 29 29 28 27 26 26 26 24 23 23 23 22 23 24 26
24 24 25 26 28 30 32 32 33 33 33 32 32 32 31 31 33 34 36 38 41 43 45 47 48 49 52 54 54 54 56 58 59 58 58 59 60 60 59 61 62 62 61 61 62 62 60 57 57 54 50 47 44 41 41 45 45 45 46 48 46 43 40 39 39 36 33 32 31 30 30 30 29 27 27 27 26 25 25 24 23 23 24 25 26
24 24 25 25 27 28 30 30 31 32 32 32 32 33 32 31 32 34 36 39 43 45 47 49 50 50 52 53 53 53 54 55 55 56 57 58 59 59 59 60 62 62 62 60 60 60 59 58 55 51 47 43 40 38 38 42 45 45 46 47 45 42 40 40 39 36 34 33 32 31 31 31 29 28 27 27 27 26 26 25 24 24 25 26 27
24 24 24 25 26 27 27 28 29 30 31 31 32 33 33 33 33 33 35 38 42 46 48 50 50 51 51 52 52 51 51 53 55 56 58 58 59 60 60 60 60 61 62 61 60 59 58 57 53 49 45 42 41 39 39 42 46 48 47 47 44 42 41 40 38 36 35 35 33 32 31 31 29 28 27 27 27 27 27 26 25 25 26 27 28
25 25 25 25 26 26 27 28 29 29 30 30 31 32 32 34 34 35 35 37 39 43 47 50 51 52 53 53 53 52 52 55 57 57 57 58 59 60 60 59 59 60 61 61 60 59 58 58 56 53 50 47 45 44 43 44 47 47 47 47 46 44 42 40 37 36 36 34 33 32 32 31 29 27 27 27 27 28 28 27 26 27 27 28 28
28 27 27 27 27 27 28 29 29 30 30 31 31 32 32 33 34 36 37 37 38 40 43 47 50 52 53 54 54 55 55 57 57 56 56 56 57 59 60 59 58 59 60 60 59 59 59 58 59 59 57 54 50 47 45 47 50 50 49 47 45 43 40 38 36 35 34 34 33 33 32 31 29 28 27 27 28 28 28 27 27 28 28 29 29
27 27 27 27 28 28 28 28 29 30 31 32 32 32 32 33 34 35 37 38 39 40 41 44 47 51 53 54 55 55 56 57 57 56 55 55 55 57 58 58 58 58 59 59 59 59 58 58 58 58 57 56 53 51 50 52 56 57 53 48 43 39 37 35 34 33 34 34 34 33 32 30 29 28 27 27 28 27 27 28 28 28 29 30 30
24 25 26 26 27 27 27 28 28 29 30 30 30 31 32 32 33 35 36 38 40 41 42 43 45 47 51 54 57 57 56 57 56 56 56 55 54 55 56 57 58 59 59 60 60 59 57 57 58 57 58 59 59 58 55 55 57 57 54 49 44 39 36 34 34 34 35 35 34 33 32 30 29 28 27 28 28 27 27 28 28 29 30 31 31
25 26 27 28 28 29 29 30 30 30 30 29 29 29 30 31 33 34 36 38 40 42 44 45 45 46 46 50 53 56 57 58 57 57 56 55 55 55 55 57 59 61 61 60 60 58 56 56 57 57 59 61 62 61 57 55 56 56 53 48 42 37 35 35 35 36 36 35 34 33 31 30 29 28 27 27 27 27 26 27 28 30 31 31 30
27 28 29 30 30 31 32 33 33 34 33 31 30 29 29 30 31 33 35 37 39 42 44 45 46 47 46 47 48 51 54 56 57 57 57 56 55 55 56 57 59 60 61 60 59 58 58 57 56 58 60 60 60 59 57 56 57 55 49 43 38 35 33 34 35 36 35 34 33 32 30 29 29 28 27 27 27 26 26 27 29 30 30 30 29
29 30 30 31 32 32 33 34 35 36 35 34 33 32 32 31 30 31 34 36 38 41 43 44 46 47 47 47 48 49 50 52 54 55 56 56 55 55 55 56 57 58 59 59 59 59 58 57 56 58 60 58 58 58 57 56 55 51 44 38 34 32 32 33 35 35 33 32 32 31 30 29 28 28 28 26 26 26 26 28 29 30 29 29 28
32 33 33 34 35 35 35 36 37 38 38 37 37 36 35 34 32 32 33 35 37 40 41 43 44 46 46 47 48 49 49 49 51 53 54 54 55 54 54 54 55 56 56 58 59 58 57 56 56 58 59 59 59 58 56 53 51 46 40 37 34 33 34 35 34 32 31 30 30 29 28 28 28 28 28 26 25 26 27 28 28 28 28 27 26
34 36 36 37 38 38 39 39 41 42 42 40 40 39 39 38 36 34 35 36 38 40 41 42 43 45 45 45 47 47 47 47 48 49 51 52 53 53 53 53 53 54 55 56 57 57 56 56 56 56 56 56 56 53 50 48 46 42 39 37 36 36 36 35 33 31 31 31 30 28 28 27 28 28 27 25 25 26 27 27 27 27 27 26 25
37 38 39 39 40 41 41 42 43 45 45 43 42 41 41 40 38 37 38 38 39 41 42 42 42 44 44 44 45 46 46 45 45 45 47 48 49 51 52 52 52 53 54 54 54 54 54 54 55 54 53 53 52 48 46 45 45 44 41 38 36 35 34 34 33 33 33 33 31 29 29 28 29 28 26 25 25 26 26 26 26 26 25 25 24
39 39 40 41 42 43 43 44 45 46 47 45 43 43 42 41 40 39 39 39 40 42 42 42 42 43 43 43 43 44 45 44 43 43 44 46 48 50 50 51 51 52 53 52 51 52 52 52 53 54 54 52 50 48 47 47 47 46 44 41 37 34 33 35 36 36 35 33 31 30 30 30 29 27 26 25 25 26 25 26 26 25 24 24 23
39 40 41 42 43 43 43 44 44 46 47 46 44 43 42 41 39 39 39 39 41 43 43 43 43 43 43 43 43 43 44 43 41 41 42 45 48 49 49 49 50 52 52 50 50 51 50 49 50 52 53 51 49 48 47 47 47 46 45 43 40 37 37 39 39 37 34 33 32 31 31 31 29 26 25 25 26 26 25 25 25 24 23 23 22
39 40 41 42 43 43 43 43 44 44 45 45 44 44 43 41 39 38 37 38 41 43 43 44 44 44 43 42 42 42 42 41 39 39 40 43 46 47 48 48 50 51 50 48 48 49 48 48 50 52 53 51 48 44 45 49 49 45 41 40 39 37 38 40 40 38 35 33 33 32 31 30 27 25 25 25 25 25 24 24 23 22 21 21 20
Wind_Direction
245 240 234 229 226 225 225 225 225 226 226 229 233 237 242 246 252 254 253 250 243 235 214 197 189 190 194 196 197 199 198 194 191 191 193 196 196 198 205 211 198 80 86 99 101 101 104 109 108 107 108 104 103 104 101 101 99 96 95 93 92 90 89 88 87 84 83 82 80 79 76 75 75 73 70 69 66 64 64 59 56 55 53 52 50
245 245 239 234 231 228 228 229 229 230 229 231 234 238 241 243 248 251 251 248 242 236 224 209 197 195 198 198 199 198 197 195 195 196 199 203 206 207 209 214 219 138 100 112 112 114 115 114 114 114 114 110 108 109 106 104 103 100 97 96 94 92 91 89 88 86 84 82 80 79 77 77 75 72 69 67 62 60 60 53 52 54 52 51 49
242 243 241 236 235 232 231 232 234 234 233 234 235 239 241 240 241 245 248 248 244 235 224 214 203 201 202 201 201 200 200 201 201 202 204 209 214 217 220 221 222 229 150 139 140 130 125 121 124 121 112 114 113 111 111 108 106 104 101 99 97 95 93 91 90 88 86 82 80 81 79 78 74 71 69 61 55 56 57 49 48 53 52 50 47
242 242 241 238 237 236 235 235 238 239 238 237 237 238 240 240 238 237 240 243 243 237 227 216 208 205 204 204 204 204 205 207 208 209 210 214 217 221 226 227 226 236 243 249 221 140 131 127 131 131 118 119 121 117 116 113 110 108 105 103 100 98 96 94 92 89 87 84 81 82 79 76 74 72 67 56 50 51 51 46 49 56 53 47 46
244 242 240 238 238 238 239 239 239 241 240 239 239 239 240 240 239 237 237 239 240 236 229 219 212 209 208 208 208 210 211 212 213 214 215 216 219 222 224 227 231 245 259 268 258 147 142 139 140 143 139 133 128 125 124 120 117 115 111 109 106 102 100 97 94 91 89 87 84 81 78 75 72 71 65 55 48 45 44 45 49 55 51 45 45
245 245 241 239 238 237 239 240 241 241 241 241 240 241 242 242 241 239 237 238 238 236 232 224 218 214 213 213 214 216 217 218 218 218 220 220 220 222 223 228 234 247 262 264 246 192 161 148 146 148 145 141 137 134 132 130 127 123 120 116 113 108 106 103 99 96 90 89 86 80 78 75 71 68 65 59 51 43 40 44 47 48 46 44 43
245 246 245 242 240 239 238 239 241 242 242 243 242 242 243 243 243 241 239 239 238 236 232 228 224 220 218 219 220 222 222 222 223 221 223 223 222 223 225 231 236 244 257 257 244 227 200 172 162 159 150 147 147 144 140 139 135 131 128 123 120 116 112 108 103 102 96 92 87 81 78 75 70 66 64 61 54 44 40 45 46 44 42 42 41
244 246 247 246 245 243 240 239 239 240 242 243 243 244 244 244 243 242 241 240 240 238 233 229 228 225 223 223 223 225 227 227 227 224 225 225 224 226 230 234 239 247 254 253 246 235 225 210 198 184 164 155 155 152 149 147 143 140 138 133 127 122 117 113 109 106 99 94 90 84 79 74 70 65 63 57 48 43 42 45 45 42 40 39 37
246 246 246 248 251 251 247 243 241 239 241 244 246 245 244 243 243 243 241 240 240 239 236 232 230 227 226 226 226 227 230 231 231 228 227 227 227 229 234 237 242 250 253 250 247 239 233 229 223 210 188 173 163 160 157 152 148 147 145 140 133 128 125 121 116 110 101 96 92 88 82 74 64 63 63 46 36 40 42 43 39 37 37 36 33
247 248 247 247 251 255 255 251 249 246 243 243 245 247 245 244 243 243 241 240 240 239 238 237 235 232 228 228 228 229 231 233 232 229 228 229 229 231 235 239 246 252 252 247 244 240 235 232 228 223 216 203 185 174 169 162 157 153 150 147 141 138 134 129 124 117 105 94 91 89 87 76 63 62 51 27 27 37 41 39 32 33 32 30 30
246 249 252 251 251 253 253 252 252 253 252 247 243 244 246 246 242 240 240 238 238 238 238 239 238 237 233 230 229 230 231 231 229 227 228 230 231 233 235 241 249 251 249 245 242 240 236 233 230 227 226 223 214 203 195 186 172 161 160 160 155 150 145 134 129 128 120 101 87 82 81 65 56 52 25 15 22 31 39 33 21 29 29 25 29
255 256 253 252 257 258 253 251 250 248 250 251 247 247 248 248 245 240 238 236 234 233 235 237 236 235 233 230 229 229 229 229 228 227 228 231 232 234 238 243 250 249 245 242 239 238 236 234 232 230 228 226 226 222 217 214 198 177 169 171 169 163 158 144 135 140 142 124 74 53 44 16 2 0 5 18 18 19 31 24 12 22 25 24 28
255 258 255 252 258 259 253 251 252 249 249 250 254 256 252 248 246 243 241 237 235 233 231 231 232 231 229 229 230 231 230 229 229 228 229 231 233 237 241 245 248 245 241 240 238 237 235 234 232 231 229 225 225 225 223 226 221 206 186 177 180 177 169 151 147 190 245 268 307 10 14 356 335 326 334 349 1 9 14 4 2 13 20 24 24
250 249 253 257 262 259 255 254 252 250 248 247 254 260 256 249 246 246 245 239 237 235 232 229 230 233 232 230 228 229 232 233 231 231 230 231 235 238 240 243 244 241 239 238 237 236 234 233 231 231 229 225 224 225 225 230 229 228 218 194 193 201 204 212 260 254 271 277 287 320 345 341 318 315 321 326 351 3 359 348 351 5 18 23 19
253 247 248 259 268 262 258 258 253 247 242 243 253 257 253 251 248 248 249 243 237 235 235 233 233 233 230 227 227 228 231 234 233 232 233 233 235 237 239 241 241 237 236 236 235 235 233 232 231 230 228 225 225 224 225 230 228 230 232 217 212 221 234 260 274 269 273 275 281 291 302 318 305 305 307 312 342 353 351 346 348 4 19 20 16
255 254 253 257 266 265 261 260 255 250 243 244 254 255 249 250 252 252 252 247 239 234 233 232 234 234 227 222 224 225 230 236 236 234 234 234 235 237 238 239 238 236 235 234 233 233 232 231 231 230 228 226 225 225 225 227 227 229 231 227 227 233 244 261 271 272 276 277 280 282 283 290 293 296 295 302 326 338 341 336 342 8 20 15 15
250 256 256 254 261 264 261 261 256 251 247 247 252 253 248 247 254 261 258 252 245 239 234 230 232 237 236 230 226 226 235 240 239 237 237 237 237 238 238 238 237 235 234 233 232 231 230 230 230 229 229 228 226 225 226 226 227 231 232 230 232 236 243 255 263 268 274 279 282 281 278 276 281 286 284 294 308 309 308 316 335 2 9 10 13
248 253 253 254 261 260 259 264 261 254 251 250 249 250 247 245 255 270 268 259 249 242 238 235 232 232 236 241 241 241 247 246 240 239 240 239 240 240 239 238 237 236 235 232 231 230 230 229 229 229 229 229 227 226 226 227 228 231 232 232 234 237 242 249 255 261 266 273 278 278 278 274 276 279 277 283 290 291 295 302 316 329 352 9 6
249 254 256 258 262 257 255 264 264 258 256 254 253 254 253 254 262 272 273 263 251 243 244 241 235 233 236 243 246 247 251 251 245 243 242 241 242 241 241 240 238 238 236 234 231 230 229 229 228 228 229 229 228 227 227 227 228 231 233 234 236 238 241 246 251 256 260 264 267 271 274 273 272 273 273 275 274 278 287 294 304 319 358 12 357
248 253 257 259 263 262 260 264 263 260 259 260 259 258 259 264 267 268 269 261 251 247 248 243 239 241 242 243 245 246 249 252 251 247 246 248 247 243 242 242 241 241 239 237 235 232 230 229 229 229 229 229 228 228 228 227 229 232 234 235 236 239 241 245 249 252 256 258 258 261 264 265 265 266 267 268 268 270 277 284 296 314 344 357 347
253 252 252 254 258 260 259 260 259 256 256 257 256 255 259 266 266 264 266 261 253 251 251 247 245 246 248 247 244 243 246 249 249 247 245 248 251 248 244 242 244 247 243 240 237 235 233 230 229 230 230 230 229 228 228 228 229 232 234 235 236 239 241 244 247 249 252 254 253 252 253 255 255 257 262 264 262 266 276 281 289 304 316 330 343
261 259 255 252 254 255 256 259 260 259 259 258 257 257 263 267 263 261 264 261 255 255 255 251 248 247 250 251 245 241 243 244 247 250 247 246 248 249 248 244 246 251 248 244 242 238 236 233 230 230 229 229 229 229 229 228 230 232 234 235 236 238 241 243 245 246 249 251 249 248 248 249 249 251 257 261 259 261 269 276 285 300 309 319 332
263 262 259 256 255 254 256 258 259 261 263 262 261 263 266 268 265 263 263 261 257 259 259 252 248 247 246 246 244 243 248 253 262 263 253 249 251 251 250 247 247 250 250 249 247 242 239 237 234 232 230 229 229 229 229 229 230 232 233 235 236 238 241 243 244 245 247 248 246 245 246 245 245 247 252 256 256 257 262 272 283 297 304 310 318
266 264 261 259 257 256 256 256 256 258 261 262 262 262 263 262 261 261 263 264 261 259 259 256 252 251 248 245 244 244 251 262 270 269 258 255 259 255 250 248 247 248 248 248 246 242 241 240 238 235 232 231 229 228 228 229 230 231 233 234 235 237 239 241 243 243 245 246 244 242 243 243 241 243 248 251 253 252 258 270 281 290 295 301 308
269 267 266 265 263 261 260 258 257 256 257 260 262 263 263 259 256 258 261 267 266 259 256 256 256 257 253 249 247 245 251 262 268 267 260 255 258 254 249 248 250 250 249 247 245 242 241 241 239 237 234 233 231 230 229 229 229 231 233 234 234 236 238 240 242 242 243 243 242 241 242 240 238 240 244 248 249 248 254 265 275 283 289 297 305
272 272 272 269 266 263 261 260 259 256 255 258 260 262 264 263 261 262 263 266 267 261 258 258 259 261 256 250 249 248 251 260 266 266 260 255 258 256 249 246 248 250 249 249 247 243 243 244 242 239 237 236 235 232 231 230 230 231 233 234 234 234 236 239 241 241 242 241 240 240 240 239 236 238 241 244 246 246 251 260 270 278 287 296 303
274 274 274 271 268 265 262 259 258 258 255 254 257 259 260 262 263 264 265 265 264 261 259 261 262 265 262 254 251 251 252 258 265 265 260 260 265 262 252 245 244 246 248 249 249 249 250 249 245 242 241 240 238 236 233 231 230 230 232 233 233 233 234 237 239 240 240 238 238 239 238 237 235 236 239 241 243 245 248 257 267 276 286 294 300
277 277 276 274 272 269 265 263 259 258 257 255 256 257 258 260 260 261 262 262 262 261 260 261 262 263 264 259 255 255 255 260 265 263 260 263 266 263 255 248 243 243 246 248 249 252 254 250 245 244 242 241 240 237 234 232 230 230 231 232 232 232 233 235 236 238 237 236 236 238 237 236 235 236 238 240 241 242 246 254 265 274 283 290 296
285 283 282 280 278 275 271 268 264 261 259 258 258 259 259 259 258 257 258 258 260 261 261 263 263 262 262 259 257 258 257 261 265 261 260 265 267 265 259 252 246 243 244 247 250 253 255 253 248 245 243 241 239 237 234 232 230 229 230 231 231 231 232 233 234 234 234 233 234 236 236 235 235 235 237 239 239 240 244 252 261 271 280 287 292
287 286 286 286 284 283 280 277 275 270 267 265 263 263 263 261 258 256 255 255 257 259 260 262 263 263 261 259 258 258 260 264 265 260 262 267 269 268 263 255 249 245 243 245 251 255 256 254 252 248 246 245 242 238 235 232 230 229 230 231 230 230 231 230 231 231 230 230 232 233 234 235 234 234 236 237 238 240 245 251 260 269 277 285 290
285 285 286 287 286 287 287 286 285 283 280 278 276 275 274 268 261 257 255 254 255 256 258 259 261 262 261 261 261 261 264 266 263 261 265 269 271 270 265 258 252 248 245 243 249 256 256 253 252 251 252 251 247 242 236 231 229 229 230 230 230 230 230 229 228 229 229 230 230 230 232 234 233 233 235 237 238 241 246 252 260 268 277 283 289
281 283 283 285 286 286 287 287 287 287 287 288 287 285 283 276 266 259 256 256 257 257 258 259 260 261 261 262 263 264 266 266 263 264 267 270 271 270 265 261 256 252 247 243 245 253 256 255 252 251 252 251 248 244 237 231 228 228 229 229 229 230 230 228 228 229 229 229 227 227 229 231 232 233 235 238 240 243 248 254 261 268 276 283 288
280 281 280 281 283 284 285 285 285 286 287 288 290 289 286 280 270 261 256 254 256 258 260 261 261 262 262 262 263 264 265 264 264 265 267 270 270 268 265 261 258 255 250 244 245 250 253 253 250 248 247 245 245 244 238 231 228 227 227 227 228 230 230 229 229 230 230 227 225 225 228 230 231 233 236 239 242 244 250 255 261 268 276 283 287
282 280 279 279 280 281 283 283 285 285 285 286 288 290 289 283 274 265 259 255 254 255 258 259 260 261 262 262 262 263 264 264 264 265 267 269 268 267 266 263 260 258 254 247 246 248 250 250 249 247 245 242 242 242 237 232 228 226 226 226 226 227 227 227 229 230 228 225 224 225 227 229 231 233 236 241 244 246 251 257 262 269 277 282 286
282 281 281 280 280 280 280 280 281 283 285 286 287 289 290 284 275 266 261 259 257 256 256 258 260 262 263 264 264 264 265 265 266 266 267 268 267 267 268 267 264 262 258 252 248 247 248 249 249 249 246 242 241 240 237 233 229 226 225 224 225 225 225 226 229 230 227 224 223 224 227 229 231 233 237 241 246 249 253 258 263 270 277 281 285
283 283 283 281 280 279 277 277 278 280 283 285 287 287 289 286 278 268 261 258 257 257 257 258 260 261 263 264 265 266 267 267 267 269 269 269 268 268 269 269 266 263 260 255 250 248 246 246 248 247 245 242 242 241 236 230 227 226 225 223 223 223 223 227 229 228 224 222 222 224 226 230 232 234 238 242 248 251 255 259 263 269 275 279 284
287 284 283 282 281 280 279 278 278 278 280 283 284 285 287 287 282 274 266 260 257 257 258 259 260 261 263 264 265 267 268 268 269 271 272 271 271 270 269 268 266 265 261 256 251 247 244 243 245 245 241 240 241 241 237 230 227 226 224 222 222 221 221 225 227 226 222 221 221 223 226 229 232 234 238 243 248 253 257 260 263 269 274 278 282
290 288 286 285 284 284 284 283 282 281 281 282 283 284 285 285 285 281 275 267 261 258 258 259 260 261 263 264 265 267 268 268 269 271 272 272 272 271 270 270 268 266 263 258 253 247 243 243 245 244 241 240 241 242 242 236 230 226 222 218 218 219 221 224 226 225 223 221 221 223 225 229 232 235 239 243 249 253 257 260 264 269 274 277 281
296 296 294 293 291 290 290 289 288 288 287 286 285 284 284 284 285 284 282 278 271 264 261 259 260 261 262 264 265 267 266 266 268 271 271 271 272 272 272 271 269 266 262 260 255 249 245 243 242 243 242 240 239 241 242 237 228 223 220 216 214 216 220 223 226 227 224 222 221 222 225 229 232 235 238 242 247 253 257 260 264 269 273 277 280
302 302 302 300 298 297 296 294 294 293 291 290 289 288 287 287 286 286 285 284 281 276 271 266 263 262 262 263 265 266 266 266 268 271 271 272 272 272 272 271 269 266 263 260 256 251 247 244 242 243 241 237 235 237 237 230 222 218 216 216 216 218 221 225 229 229 225 221 219 220 224 229 232 234 237 241 246 252 256 261 265 269 273 277 279
306 306 304 302 301 301 300 298 297 295 293 293 293 293 292 290 288 287 286 285 284 283 280 276 270 265 263 263 264 265 265 267 269 270 272 273 273 272 272 271 268 266 264 260 256 251 247 243 241 240 238 235 234 233 231 227 223 219 215 213 216 220 223 228 231 229 223 219 217 219 222 227 231 234 237 241 246 251 256 261 265 269 273 275 278
308 307 305 303 304 303 302 300 298 296 295 295 296 296 295 293 291 288 287 286 285 284 282 281 277 272 266 264 264 265 266 267 269 270 272 274 274 273 273 271 268 267 265 261 256 251 246 242 239 236 234 233 233 232 231 229 225 220 215 212 214 216 220 225 228 225 220 216 216 218 220 225 231 234 236 241 246 251 256 261 265 269 272 274 277
305 304 304 304 305 305 304 303 301 299 298 298 298 297 295 294 292 290 288 286 285 284 282 281 281 279 275 270 268 267 267 267 269 270 272 273 274 275 274 271 268 266 264 261 257 253 247 242 240 236 234 233 233 231 230 228 223 216 214 213 213 215 220 225 227 223 218 216 216 217 219 224 230 233 236 241 247 251 256 261 265 268 271 273 275
301 299 300 301 302 303 303 302 302 302 302 301 300 299 296 294 292 290 288 286 285 283 282 281 282 282 281 279 276 273 270 270 270 272 273 273 273 274 274 271 267 265 265 263 260 255 250 245 240 237 235 233 232 230 228 224 218 214 213 213 214 220 226 230 230 225 218 214 215 216 220 224 229 233 237 242 247 251 256 262 265 268 270 272 274
302 301 301 301 301 302 302 301 302 302 304 305 305 303 300 297 294 290 288 287 285 283 282 282 282 282 282 281 281 279 277 275 274 274 274 274 274 274 274 273 269 267 266 265 262 258 253 247 242 240 239 235 230 230 229 223 216 213 212 213 217 224 231 234 233 225 216 212 213 217 221 224 229 235 238 242 247 252 258 262 265 267 268 270 273
306 306 306 306 306 305 305 305 304 304 305 308 308 307 305 302 298 293 290 287 285 283 282 282 282 282 282 281 281 281 280 278 277 276 276 276 275 276 276 274 272 270 268 265 262 257 251 246 243 243 243 238 234 234 230 221 215 215 218 222 226 231 236 236 229 218 211 211 213 217 222 225 229 234 237 241 247 254 259 262 263 265 267 270 273
310 310 309 309 309 308 308 308 307 306 307 309 309 308 306 304 301 296 291 288 285 284 283 282 282 282 282 282 282 282 282 281 280 279 279 278 277 277 277 275 275 273 271 268 264 258 251 247 244 243 241 238 236 234 227 219 217 222 227 231 235 237 236 229 218 210 209 211 213 216 221 224 228 233 238 242 249 255 259 260 261 263 267 270 272
312 312 311 311 310 310 310 310 309 307 307 308 308 307 306 304 302 297 293 289 287 285 284 283 282 282 282 282 282 283 283 283 282 281 281 280 278 276 276 276 275 274 272 270 267 259 251 245 242 240 238 238 235 228 222 219 222 225 226 229 232 233 227 218 211 209 209 211 214 217 222 226 229 234 240 246 251 256 258 259 261 263 266 269 271
315 314 313 312 311 311 310 309 309 306 304 305 306 305 304 303 301 297 294 291 288 286 285 283 282 282 282 282 282 283 284 284 283 282 281 279 277 275 274 274 273 272 270 269 264 257 249 245 245 243 240 237 231 225 222 222 224 225 225 226 227 222 214 210 210 210 210 212 215 219 224 229 232 236 244 250 255 257 257 259 261 263 265 268 271
314 314 313 312 311 310 309 308 307 305 303 303 304 303 302 301 299 296 293 290 287 286 285 285 284 282 281 282 282 282 283 284 284 283 280 277 275 274 273 272 270 269 268 266 261 256 251 248 246 242 238 233 229 227 225 224 224 226 227 227 226 219 212 211 212 210 209 211 215 219 224 230 234 239 246 252 256 257 257 258 260 262 264 267 269
311 311 310 310 308 308 308 308 307 306 304 304 303 302 301 299 297 295 292 288 286 285 285 285 285 283 282 282 281 281 283 284 284 283 281 277 274 274 274 271 269 269 267 264 262 259 256 251 244 238 233 229 227 227 226 224 224 224 224 224 226 223 219 217 213 209 208 211 215 220 226 232 237 242 248 251 254 256 256 257 259 261 261 263 265